Date String (YYYY-MM-DD hh:mm:ss) UTC,Instrument flags,absolute air pressure of the measurement (hPa),sample flow rate (lpm),inlet stack bypass flow (lpm),air temperature of the measurement (°C),ambient temperature measured by the external sensor (°C),aerosol sample conditioner tube jacket temperature (°C),OPC LED temperature (°C),internal box temperature (°C),relative humidity of the measurement (%),span deviation,mass concentration of particles derived from Lorenz-Mie calculation of OPC scattering (μg/m³),mass concentration of particles derived from Lorenz-Mie calculation of OPC scattering (μg/m³),mass concentration of particles derived from Lorenz-Mie calculation of OPC scattering (μg/m³)
DateTimeUTC,F1_M11,P_M11,Q1_M11,Q2_M11,T1_M11,T2_M11,T3_M11,T4_M11,T5_M11,U1_M11,ZSPAN_M11,X2_M11,X0_M11,X1_M11
2023-06-08 15:00:00,SystemResetWarning,0831.0,5.00,000.00,029.9,028.3,000.0,038.5,031.4,25.6,0000.0,0003.19,0008.12,0002.53
2023-06-08 15:01:00,SystemResetWarning,0831.0,4.99,000.00,029.9,028.3,000.0,038.5,031.4,25.7,0000.0,0003.19,0008.10,0002.54
2023-06-08 15:02:00,SystemResetWarning,0831.0,5.00,000.00,030.0,028.4,000.0,038.5,031.5,25.8,0000.0,0003.15,0007.98,0002.52
2023-06-08 15:03:00,SystemResetWarning,0831.0,5.01,000.00,030.0,028.4,000.0,038.5,031.5,25.6,0000.0,0003.12,0007.58,0002.49
2023-06-08 15:04:00,SystemResetWarning,0831.0,4.99,000.00,030.0,028.4,000.0,038.5,031.5,25.3,0000.0,0003.13,0008.02,0002.48
2023-06-08 15:05:00,SystemResetWarning,0831.0,4.99,000.00,030.0,027.4,000.0,038.5,031.5,24.6,0000.0,0003.09,0007.73,0002.47
2023-06-08 15:06:00,SystemResetWarning,0831.0,5.02,000.00,030.0,025.9,000.0,038.4,031.5,24.2,0000.0,0003.00,0007.45,0002.44
2023-06-08 15:07:00,SystemResetWarning,0831.0,5.00,000.00,030.0,025.9,000.0,038.4,031.3,24.8,0000.0,0002.94,0005.99,0002.42
2023-06-08 15:08:00,SystemResetWarning,0831.1,4.99,000.00,029.9,026.1,000.0,038.4,031.0,24.4,0000.0,0002.94,0005.90,0002.41
2023-06-08 15:09:00,SystemResetWarning,0831.0,5.00,000.00,029.8,026.4,000.0,038.4,031.0,24.3,0000.0,0002.90,0005.49,0002.40
2023-06-08 15:10:00,SystemResetWarning,0831.1,5.00,000.00,029.8,026.7,000.0,038.4,031.0,24.4,0000.0,0002.90,0005.52,0002.41
2023-06-08 15:11:00,SystemResetWarning,0831.1,5.00,000.00,029.7,027.0,000.0,038.4,031.1,23.7,0000.0,0002.83,0005.22,0002.40
2023-06-08 15:12:00,SystemResetWarning,0831.1,5.01,000.00,029.7,027.2,000.0,038.3,031.1,23.9,0000.0,0002.82,0005.13,0002.38
2023-06-08 15:13:00,SystemResetWarning,0831.1,4.98,000.00,029.7,027.4,000.0,038.3,031.1,24.4,0000.0,0002.83,0005.26,0002.36
2023-06-08 15:14:00,SystemResetWarning,0831.2,5.01,000.00,029.7,027.5,000.0,038.3,031.1,23.7,0000.0,0002.83,0005.15,0002.36
2023-06-08 15:15:00,SystemResetWarning,0831.1,5.01,000.00,029.7,027.7,000.0,038.3,031.2,23.8,0000.0,0002.79,0004.14,0002.34
2023-06-08 15:16:00,SystemResetWarning,0831.2,4.99,000.00,029.7,027.8,000.0,038.3,031.2,23.8,0000.0,0002.80,0004.09,0002.33
2023-06-08 15:17:00,SystemResetWarning,0831.1,5.00,000.00,029.7,027.8,000.0,038.3,031.2,24.5,0000.0,0002.76,0004.71,0002.33
2023-06-08 15:18:00,SystemResetWarning,0831.1,5.00,000.00,029.7,027.9,000.0,038.3,031.2,24.4,0000.0,0002.73,0006.49,0002.31
2023-06-08 15:19:00,SystemResetWarning,0831.1,5.01,000.00,029.7,027.9,000.0,038.3,031.2,24.9,0000.0,0002.72,0007.38,0002.30
2023-06-08 15:20:00,SystemResetWarning,0831.1,4.99,000.00,029.7,028.0,000.0,038.3,031.2,25.2,0000.0,0002.77,0007.61,0002.28
2023-06-08 15:21:00,SystemResetWarning,0831.1,4.99,000.00,029.7,028.0,000.0,038.3,031.2,24.3,0000.0,0002.77,0007.92,0002.25
2023-06-08 15:22:00,SystemResetWarning,0831.1,5.00,000.00,029.7,028.1,000.0,038.3,031.2,24.5,0000.0,0002.79,0008.37,0002.25
2023-06-08 15:23:00,SystemResetWarning,0831.0,5.02,000.00,029.7,028.1,000.0,038.3,031.2,25.1,0000.0,0002.81,0008.62,0002.25
2023-06-08 15:24:00,SystemResetWarning,0831.0,5.00,000.00,029.8,028.2,000.0,038.3,031.2,23.9,0000.0,0002.78,0008.53,0002.26
2023-06-08 15:25:00,SystemResetWarning,0831.0,4.99,000.00,029.8,028.2,000.0,038.3,031.2,24.5,0000.0,0002.77,0008.71,0002.25
2023-06-08 15:26:00,SystemResetWarning,0831.0,5.00,000.00,029.8,028.2,000.0,038.3,031.3,24.0,0000.0,0002.78,0009.41,0002.25
2023-06-08 15:27:00,SystemResetWarning,0831.0,5.01,000.00,029.8,028.3,000.0,038.3,031.3,22.9,0000.0,0002.77,0009.44,0002.24
2023-06-08 15:28:00,SystemResetWarning,0831.0,5.01,000.00,029.8,028.3,000.0,038.3,031.3,23.4,0000.0,0002.80,0009.26,0002.22
2023-06-08 15:29:00,SystemResetWarning,0830.9,5.01,000.00,029.8,028.4,000.0,038.3,031.4,23.6,0000.0,0002.81,0008.32,0002.21
2023-06-08 15:30:00,SystemResetWarning,0830.9,5.00,000.00,029.9,028.4,000.0,038.4,031.4,24.4,0000.0,0002.75,0007.76,0002.20
2023-06-08 15:31:00,SystemResetWarning,0830.9,5.00,000.00,029.9,028.3,000.0,038.4,031.5,24.2,0000.0,0002.70,0007.57,0002.19
2023-06-08 15:32:00,SystemResetWarning,0830.9,4.98,000.00,029.9,026.7,000.0,038.3,031.4,24.1,0000.0,0002.68,0007.09,0002.18
2023-06-08 15:33:00,SystemResetWarning,0830.9,5.00,000.00,029.9,025.0,000.0,038.3,031.3,24.4,0000.0,0002.63,0006.37,0002.15
2023-06-08 15:34:00,SystemResetWarning,0830.9,5.02,000.00,029.8,024.9,000.0,038.2,031.2,24.7,0000.0,0002.58,0006.04,0002.13
2023-06-08 15:35:00,SystemResetWarning,0830.8,5.01,000.00,029.7,025.2,000.0,038.2,030.9,24.7,0000.0,0002.60,0006.08,0002.12
2023-06-08 15:36:00,SystemResetWarning,0830.8,5.00,000.00,029.6,025.7,000.0,038.2,030.7,25.1,0000.0,0002.60,0005.79,0002.11
2023-06-08 15:37:00,SystemResetWarning,0830.9,5.00,000.00,029.6,026.1,000.0,038.2,030.8,24.8,0000.0,0002.63,0004.60,0002.11
2023-06-08 15:38:00,SystemResetWarning,0830.9,5.00,000.00,029.6,026.4,000.0,038.2,030.8,25.2,0000.0,0002.64,0004.67,0002.11
2023-06-08 15:39:00,SystemResetWarning,0830.8,4.99,000.00,029.5,026.8,000.0,038.2,030.8,25.5,0000.0,0002.64,0004.46,0002.12
2023-06-08 15:40:00,SystemResetWarning,0830.8,5.00,000.00,029.5,027.0,000.0,038.2,030.8,25.7,0000.0,0002.64,0004.69,0002.12
2023-06-08 15:41:00,SystemResetWarning,0830.8,5.01,000.00,029.5,027.3,000.0,038.2,030.9,24.6,0000.0,0002.67,0005.00,0002.12
2023-06-08 15:42:00,SystemResetWarning,0830.8,5.00,000.00,029.5,027.4,000.0,038.1,030.9,23.1,0000.0,0002.66,0005.49,0002.10
2023-06-08 15:43:00,SystemResetWarning,0830.8,5.00,000.00,029.5,027.6,000.0,038.2,031.0,23.1,0000.0,0002.63,0005.79,0002.08
2023-06-08 15:44:00,SystemResetWarning,0830.8,5.00,000.00,029.5,027.7,000.0,038.1,031.0,23.8,0000.0,0002.66,0006.06,0002.07
2023-06-08 15:45:00,SystemResetWarning,0830.8,5.00,000.00,029.6,027.8,000.0,038.1,031.0,24.4,0000.0,0002.64,0006.01,0002.06
2023-06-08 15:46:00,SystemResetWarning,0830.7,4.99,000.00,029.6,027.9,000.0,038.1,031.1,24.1,0000.0,0002.64,0005.94,0002.05
2023-06-08 15:47:00,SystemResetWarning,0830.7,5.00,000.00,029.6,028.0,000.0,038.2,031.1,23.7,0000.0,0002.61,0005.88,0002.04
2023-06-08 15:48:00,SystemResetWarning,0830.7,5.00,000.00,029.6,028.1,000.0,038.2,031.1,23.3,0000.0,0002.61,0006.08,0002.02
2023-06-08 15:49:00,SystemResetWarning,0830.7,5.00,000.00,029.6,028.1,000.0,038.2,031.1,23.4,0000.0,0002.57,0006.88,0002.00
2023-06-08 15:50:00,SystemResetWarning,0830.7,5.01,000.00,029.7,028.2,000.0,038.2,031.2,23.3,0000.0,0002.52,0006.65,0001.98
2023-06-08 15:51:00,SystemResetWarning,0830.7,5.01,000.00,029.7,028.2,000.0,038.2,031.2,22.8,0000.0,0002.48,0006.31,0001.97
2023-06-08 15:52:00,SystemResetWarning,0830.7,5.00,000.00,029.7,028.3,000.0,038.2,031.2,23.3,0000.0,0002.44,0005.90,0001.96
2023-06-08 15:53:00,SystemResetWarning,0830.7,5.00,000.00,029.7,028.3,000.0,038.2,031.2,22.9,0000.0,0002.46,0005.50,0001.98
2023-06-08 15:54:00,SystemResetWarning,0830.7,5.01,000.00,029.8,028.4,000.0,038.2,031.2,23.7,0000.0,0002.50,0005.36,0002.00
2023-06-08 15:55:00,SystemResetWarning,0830.7,4.98,000.00,029.8,027.6,000.0,038.2,031.3,24.1,0000.0,0002.51,0005.30,0002.01
2023-06-08 15:56:00,SystemResetWarning,0830.7,5.01,000.00,029.8,025.9,000.0,038.2,031.3,24.6,0000.0,0002.58,0005.36,0002.03
2023-06-08 15:57:00,SystemResetWarning,0830.7,5.01,000.00,029.8,025.8,000.0,038.1,031.3,24.7,0000.0,0002.60,0005.49,0002.04
2023-06-08 15:58:00,SystemResetWarning,0830.7,4.99,000.00,029.7,026.1,000.0,038.2,031.0,24.9,0000.0,0002.62,0005.66,0002.05
2023-06-08 15:59:00,SystemResetWarning,0830.7,4.99,000.00,029.6,026.4,000.0,038.2,030.9,25.1,0000.0,0002.61,0006.15,0002.08
